• In Austria
  • List of Countries
  • For 7 days
  • Water Temperature
  • Satellite Maps
  • Weather Map
  • News
  • Weather Widgets
  • user-avatar
    Login

    Hourly Weather Kabare

    Today, 18 July, Wednesday

    Time Temperature Precipitation Wind Pressure Humidity
    00:00 +16°C° 0 mm 1 mps 625 mmHg 64%
    01:00 +16°C° 0 mm 1 mps 625 mmHg 64%
    02:00 +15°C° 0 mm 1 mps 625 mmHg 64%
    03:00 +15°C° 0 mm 1 mps 624 mmHg 66%
    04:00 +15°C° 0 mm 1 mps 624 mmHg 67%
    05:00 +15°C° 0 mm 1 mps 624 mmHg 69%
    06:00 +16°C° 0 mm 1 mps 625 mmHg 62%
    07:00 +19°C° 0 mm 1 mps 625 mmHg 56%
    08:00 +21°C° 0 mm 1 mps 626 mmHg 48%
    09:00 +23°C° 0 mm 1 mps 627 mmHg 42%
    10:00 +26°C° 0 mm 1 mps 627 mmHg 37%
    11:00 +28°C° 0 mm 1 mps 628 mmHg 31%
    12:00 +28°C° 0 mm 1 mps 627 mmHg 31%
    13:00 +28°C° 0 mm 1 mps 627 mmHg 32%
    14:00 +28°C° 0 mm 1 mps 626 mmHg 32%
    15:00 +27°C° 0 mm 1 mps 626 mmHg 35%
    16:00 +26°C° 0 mm 1 mps 625 mmHg 38%
    17:00 +25°C° 0 mm 1 mps 624 mmHg 40%
    18:00 +23°C° 0 mm 1 mps 624 mmHg 45%
    19:00 +21°C° 0 mm 1 mps 624 mmHg 50%
    20:00 +19°C° 0 mm 1 mps 624 mmHg 55%
    21:00 +19°C° 0 mm 1 mps 624 mmHg 57%
    22:00 +18°C° 0 mm 1 mps 625 mmHg 58%
    23:00 +18°C° 0 mm 1 mps 625 mmHg 60%

    Tomorrow, 19 July, Thursday

    Time Temperature Precipitation Wind Pressure Humidity
    00:00 +18°C° 0 mm 1 mps 625 mmHg 62%
    01:00 +16°C° 0 mm 1 mps 624 mmHg 64%
    02:00 +16°C° 0 mm 1 mps 624 mmHg 66%
    03:00 +16°C° 0 mm 1 mps 624 mmHg 67%
    04:00 +16°C° 0 mm 1 mps 624 mmHg 69%
    05:00 +16°C° 0 mm 1 mps 624 mmHg 70%
    06:00 +18°C° 0 mm 1 mps 624 mmHg 64%
    07:00 +19°C° 0 mm 1 mps 625 mmHg 59%
    08:00 +20°C° 0 mm 1 mps 626 mmHg 53%
    09:00 +22°C° 0 mm 1 mps 626 mmHg 48%
    10:00 +23°C° 0 mm 2 mps 627 mmHg 42%
    11:00 +25°C° 0 mm 2 mps 627 mmHg 37%
    12:00 +26°C° 0 mm 2 mps 627 mmHg 35%
    13:00 +27°C° 0 mm 2 mps 626 mmHg 34%
    14:00 +28°C° 0 mm 1 mps 626 mmHg 32%
    15:00 +27°C° 0 mm 1 mps 625 mmHg 35%
    16:00 +26°C° 0 mm 1 mps 625 mmHg 37%
    17:00 +25°C° 0 mm 1 mps 624 mmHg 40%
    18:00 +23°C° 0 mm 1 mps 624 mmHg 46%
    19:00 +21°C° 0 mm 1 mps 624 mmHg 52%
    20:00 +19°C° 0 mm 1 mps 624 mmHg 58%
    21:00 +19°C° 0 mm 1 mps 624 mmHg 59%
    22:00 +18°C° 0 mm 1 mps 625 mmHg 61%
    23:00 +18°C° 0 mm 1 mps 625 mmHg 63%

    Day after tomorrow, 20 July, Friday

    Time Temperature Precipitation Wind Pressure Humidity
    00:00 +18°C° 0 mm 1 mps 625 mmHg 64%
    01:00 +16°C° 0 mm 1 mps 624 mmHg 65%
    02:00 +16°C° 0 mm 1 mps 624 mmHg 66%
    03:00 +15°C° 0 mm 1 mps 624 mmHg 66%
    04:00 +15°C° 0 mm 1 mps 623 mmHg 67%
    05:00 +15°C° 0 mm 1 mps 623 mmHg 67%
    06:00 +16°C° 0 mm 1 mps 624 mmHg 60%
    07:00 +19°C° 0 mm 1 mps 625 mmHg 53%
    08:00 +21°C° 0 mm 1 mps 626 mmHg 46%
    09:00 +23°C° 0 mm 1 mps 627 mmHg 40%
    10:00 +26°C° 0 mm 1 mps 627 mmHg 34%
    11:00 +28°C° 0 mm 1 mps 628 mmHg 29%
    12:00 +29°C° 0 mm 1 mps 627 mmHg 28%
    13:00 +30°C° 0 mm 1 mps 627 mmHg 26%
    14:00 +31°C° 0 mm 1 mps 626 mmHg 25%
    15:00 +29°C° 0 mm 1 mps 625 mmHg 29%
    16:00 +28°C° 0 mm 1 mps 625 mmHg 33%
    17:00 +24°C° 0 mm 0 mps 624 mmHg 36%
    18:00 +22°C° 0 mm 0 mps 624 mmHg 41%
    19:00 +22°C° 0 mm 1 mps 624 mmHg 46%
    20:00 +20°C° 0 mm 1 mps 624 mmHg 50%
    21:00 +20°C° 0 mm 1 mps 624 mmHg 52%
    22:00 +19°C° 0 mm 1 mps 625 mmHg 53%
    23:00 +19°C° 0 mm 1 mps 625 mmHg 55%

    21 July, Saturday

    Time Temperature Precipitation Wind Pressure Humidity
    00:00 +19°C° 0 mm 1 mps 625 mmHg 56%
    01:00 +18°C° 0 mm 1 mps 624 mmHg 58%
    02:00 +18°C° 0 mm 1 mps 624 mmHg 59%
    03:00 +18°C° 0 mm 1 mps 624 mmHg 60%
    04:00 +18°C° 0 mm 1 mps 624 mmHg 61%
    05:00 +16°C° 0 mm 1 mps 624 mmHg 63%
    06:00 +19°C° 0 mm 1 mps 625 mmHg 57%
    07:00 +20°C° 0 mm 1 mps 626 mmHg 52%
    08:00 +22°C° 0 mm 1 mps 626 mmHg 47%
    09:00 +24°C° 0 mm 1 mps 627 mmHg 41%
    10:00 +26°C° 0 mm 1 mps 628 mmHg 35%
    11:00 +28°C° 0 mm 2 mps 628 mmHg 30%
    12:00 +28°C° 0 mm 1 mps 627 mmHg 30%
    13:00 +28°C° 0 mm 1 mps 627 mmHg 30%
    14:00 +28°C° 0 mm 1 mps 626 mmHg 30%
    15:00 +27°C° 0 mm 1 mps 626 mmHg 32%
    16:00 +26°C° 0 mm 1 mps 625 mmHg 35%
    17:00 +25°C° 0 mm 1 mps 625 mmHg 37%
    18:00 +23°C° 0 mm 1 mps 625 mmHg 42%
    19:00 +21°C° 0 mm 1 mps 625 mmHg 47%
    20:00 +19°C° 0 mm 1 mps 625 mmHg 52%
    21:00 +19°C° 0 mm 1 mps 625 mmHg 53%
    22:00 +18°C° 0 mm 1 mps 625 mmHg 53%
    23:00 +18°C° 0 mm 1 mps 625 mmHg 54%

    22 July, Sunday

    Time Temperature Precipitation Wind Pressure Humidity
    00:00 +16°C° 0 mm 1 mps 625 mmHg 56%
    01:00 +16°C° 0 mm 1 mps 624 mmHg 58%
    02:00 +15°C° 0 mm 1 mps 624 mmHg 59%
    03:00 +15°C° 0 mm 1 mps 624 mmHg 60%
    04:00 +15°C° 0 mm 1 mps 624 mmHg 60%
    05:00 +15°C° 0 mm 1 mps 624 mmHg 61%
    06:00 +18°C° 0 mm 1 mps 625 mmHg 55%
    07:00 +19°C° 0 mm 1 mps 626 mmHg 48%
    08:00 +21°C° 0 mm 1 mps 626 mmHg 42%
    09:00 +23°C° 0 mm 2 mps 627 mmHg 38%
    10:00 +25°C° 0 mm 2 mps 627 mmHg 33%
    11:00 +28°C° 0 mm 2 mps 628 mmHg 29%
    12:00 +29°C° 0 mm 2 mps 627 mmHg 28%
    13:00 +29°C° 0 mm 1 mps 627 mmHg 27%
    14:00 +30°C° 0 mm 1 mps 626 mmHg 25%
    15:00 +29°C° 0 mm 1 mps 626 mmHg 28%
    16:00 +28°C° 0 mm 1 mps 625 mmHg 31%
    17:00 +26°C° 0 mm 1 mps 625 mmHg 34%
    18:00 +24°C° 0 mm 1 mps 625 mmHg 40%
    19:00 +21°C° 0 mm 1 mps 625 mmHg 46%
    20:00 +19°C° 0 mm 1 mps 625 mmHg 53%
    21:00 +19°C° 0 mm 1 mps 625 mmHg 53%
    22:00 +19°C° 0 mm 1 mps 625 mmHg 54%
    23:00 +19°C° 0 mm 1 mps 625 mmHg 55%

    23 July, Monday

    Time Temperature Precipitation Wind Pressure Humidity
    00:00 +18°C° 0 mm 1 mps 625 mmHg 55%
    01:00 +18°C° 0 mm 1 mps 624 mmHg 56%
    02:00 +18°C° 0 mm 1 mps 624 mmHg 57%
    03:00 +18°C° 0 mm 1 mps 624 mmHg 57%
    04:00 +16°C° 0 mm 1 mps 624 mmHg 56%
    05:00 +16°C° 0 mm 1 mps 624 mmHg 56%
    06:00 +18°C° 0 mm 1 mps 625 mmHg 51%
    07:00 +20°C° 0 mm 1 mps 626 mmHg 47%
    08:00 +21°C° 0 mm 1 mps 626 mmHg 42%
    09:00 +23°C° 0 mm 1 mps 627 mmHg 38%
    10:00 +26°C° 0 mm 1 mps 627 mmHg 33%
    11:00 +28°C° 0 mm 1 mps 628 mmHg 28%
    12:00 +29°C° 0 mm 1 mps 627 mmHg 27%
    13:00 +29°C° 0 mm 1 mps 626 mmHg 27%
    14:00 +30°C° 0 mm 2 mps 626 mmHg 26%
    15:00 +29°C° 0 mm 1 mps 625 mmHg 29%
    16:00 +27°C° 0 mm 1 mps 624 mmHg 32%
    17:00 +26°C° 0 mm 1 mps 624 mmHg 35%
    18:00 +24°C° 0 mm 1 mps 624 mmHg 40%
    19:00 +22°C° 0 mm 1 mps 624 mmHg 45%
    20:00 +20°C° 0 mm 1 mps 624 mmHg 50%
    21:00 +19°C° 0 mm 1 mps 624 mmHg 50%
    22:00 +19°C° 0 mm 1 mps 625 mmHg 51%
    23:00 +19°C° 0 mm 1 mps 625 mmHg 52%
    Show more